Regional Weather Roundup
Issued by NWS Green Bay, WI

Home | Current Version | Previous Version | Text Only | Print | Product List | Glossary On
Versions: 1 2 3 4 5 6 7 8 9 10 11 12 13 14 15 16 17 18 19 20 21 22 23 24 25 26 27 28 29 30 31 32 33 34 35 36 37 38 39 40 41 42 43 44 45 46 47 48 49 50
000
ASUS43 KGRB 250911
RWRGRB

NORTH-CENTRAL AND NORTHEAST WISCONSIN REGIONAL WEATHER ROUNDUP
NATIONAL WEATHER SERVICE GREEN BAY WI
400 AM CDT SAT MAR 25 2017

WIZ005-009-010>012-018-019-251000-
NORTH CENTRAL WISCONSIN

CITY           SKY/WX    TMP DP  RH WIND       PRES   REMARKS
IRONWOOD       CLOUDY    32  28  86 E6        30.25S
MANITOWISH WTR CLOUDY    31  31 100 NE5       30.20S
ARBOR VITAE    CLOUDY    34  32  92 NE5       30.20R
EAGLE RIVER    CLOUDY    32  32  99 NE7       30.20S
LAND O LAKES   LGT SNOW  32  32 100 NE5       30.22S
RHINELANDER    CLOUDY    34  31  88 E9        30.19S
PHILLIPS       CLOUDY    32  30  92 NE6       30.20R
ANTIGO         CLOUDY    32  30  94 E17       30.19R
TOMAHAWK       CLOUDY    32  30  90 E7        30.19F
MERRILL        CLOUDY    33  31  93 E6        30.19S
$$

WIZ013-073-251000-
NORTHEAST WISCONSIN

CITY           SKY/WX    TMP DP  RH WIND       PRES   REMARKS
IRON MOUNTAIN  CLOUDY    33  29  85 N5        30.21S
MARINETTE        N/A    N/A N/A N/A MISG        N/A
OCONTO         CLOUDY    35  32  90 NE7       30.19F
$$

WIZ017-030-035>037-045-251000-
CENTRAL WISCONSIN

CITY           SKY/WX    TMP DP  RH WIND       PRES   REMARKS
MEDFORD        CLOUDY    32  30  92 E12       30.16F
WAUSAU         CLOUDY    33  30  88 E8        30.18R
MOSINEE        CLOUDY    32  32 100 NE10      30.18S
MARSHFIELD     CLOUDY    34  31  88 E13       30.15S
WISC RAPIDS    CLOUDY    34  33  96 NE9       30.17S
STEVENS POINT  CLOUDY    32  31  98 NE15      30.17F
WAUPACA        CLOUDY    36  33  89 NE7       30.17S
SHAWANO        CLOUDY    36  32  86 NE10      30.19F
CLINTONVILLE   CLOUDY    34  32  93 NE10      30.18S
WAUTOMA        CLOUDY    35  33  92 NE9       30.16S
$$

WIZ038-039-048-051-251000-
FOX VALLEY

CITY           SKY/WX    TMP DP  RH WIND       PRES   REMARKS
NWS GREEN BAY  LGT RAIN  35  34  96 NE16      30.17F
APPLETON       CLOUDY    34  34 100 NE13G18   30.12F
OSHKOSH        CLOUDY    35  32  88 NE15G22   30.12F
FOND DU LAC    CLOUDY    36  32  85 NE10      30.13R
$$

WIZ022-050-052-251000-
EAST CENTRAL WISCONSIN

CITY           SKY/WX    TMP DP  RH WIND       PRES   REMARKS
EPHRAIM        CLOUDY    34  34  99 NE8       30.19S
WASHINGTON ISL CLOUDY    33  32  96 NE7       30.21F
STURGEON BAY   CLOUDY    35  33  92 NE12G17   30.19F
MANITOWOC      LGT RAIN  36  34  92 NE13G18   30.15S
SHEBOYGAN      CLOUDY    36  33  89 NE20      30.11F
$$

LMZ563-521-522-541>543-251000-
LAKESHORE

STATION/POSITION TIME  TEMP    WIND        PRES    VSBY  WAVE
                       AIR SEA DIR/SP/G                  HT/PER
                 (UTC) (F)     (DEG/KT/KT) (MB)    (MI)  (FT/S)
SHEBOYGAN LKSHOR 0900   36      30/ 19/ 22 1020.2F
KEWAUNEE LKSHORE 0848   36      40/ 13/ 19 1021.1F
NORTHPORT PIER   0840   35      40/ 10/ 14 1023.0F
CHAMBERS ISLAND  0840   33      20/ 11/ 15 1022.7S
MENOMINEE LKSHOR 0848   34      20/ 17/ 20 1022.0F
$$



USA.gov is the U.S. government's official web portal to all federal, state and local government web resources and services.